#timestamp,LO_Frequency,Hit,StdDev 
1585760415.0,286047002.8,N
1585760415.9,286047002.8,N
1585760435.8,286047000.3,N
1585760455.6,286047000.6,N
1585760475.4,286047000.5,N
1585760495.3,286047001.6,N
1585760515.1,286047000.7,N
1585760535.9,286046998.1,N
1585760555.7,286046999.5,N
1585760575.5,286046998.1,N
1585760595.4,286047000.8,N
1585760615.2,286047000.4,N
1585760635.0,286047001.2,N
1585760635.9,286047001.2,N
1585760655.8,286046998.3,N
1585760675.6,286046998.2,N
1585760695.5,286046998.5,N
1585760715.3,286046999.2,N
1585760735.1,286046996.5,N
1585760755.9,286046998.9,N
1585760775.7,286047001.1,N
1585760795.6,286047000.4,N
1585760815.4,286047000.0,N
1585760835.2,286047004.3,N
1585760855.1,286047002.5,N
1585760856.0,286047002.5,N
1585760875.8,286047000.3,N
1585760895.7,286047000.6,N
1585760915.5,286046998.3,N
1585760935.3,286047001.0,N
1585760955.2,286047001.5,N
1585760975.9,286047000.5,N
1585760995.7,286047000.5,N
1585761015.6,286046998.2,N
1585761035.4,286046998.1,N
1585761055.3,286047001.0,N
1585761075.1,286046998.1,N
1585761076.0,286046998.1,N
1585761095.8,286046998.1,N
1585761115.7,286047001.1,N
1585761135.5,286047001.5,N
1585761155.3,286046999.7,N
1585761175.2,286047002.3,N
1585761195.0,286047002.7,N
1585761195.9,286047002.7,N
1585761215.8,286047002.4,N
1585761235.6,286047000.1,N
1585761255.4,286046998.5,N
1585761275.3,286046998.6,N
1585761295.1,286047000.2,N
1585761315.9,286047001.0,N
1585761335.7,286046998.2,N
1585761355.5,286047000.2,N
1585761375.4,286046998.5,N
1585761395.2,286046996.6,N
1585761415.1,286046996.8,N
1585761416.0,286046996.8,N
1585761435.8,286046997.2,N
1585761455.6,286046999.6,N
1585761475.5,286046996.2,N
1585761495.3,286046996.7,N
1585761515.1,286046996.6,N
1585761535.9,286047000.8,N
1585761555.7,286046998.6,N
1585761575.6,286046999.2,N
1585761595.4,286046996.7,N
1585761615.2,286046997.0,N
1585761635.1,286046998.8,N
1585761636.0,286046998.8,N
1585761655.8,286046996.7,N
1585761675.7,286046994.9,N
1585761695.5,286046997.5,N
1585761715.3,286046999.1,N
1585761735.2,286046999.4,N
1585761755.0,286046996.9,N
1585761755.9,286046996.9,N
1585761775.8,286046999.2,N
1585761795.6,286046998.5,N
1585761815.4,286046998.8,N
1585761835.3,286047000.0,N
1585761855.1,286047002.2,N
1585761875.9,286047001.3,N
1585761895.7,286046999.9,N
1585761915.5,286047001.9,N
1585761935.4,286047001.8,N
1585761955.2,286047002.5,N
1585761975.0,286047004.3,N
1585761975.9,286047004.3,N
1585761995.8,286047000.9,N
1585762015.6,286046999.0,N
1585762035.5,286046998.8,N
1585762055.3,286046998.6,N
1585762075.1,286047000.7,N
1585762095.9,286047002.0,N
1585762115.7,286047001.6,N
1585762135.6,286047002.3,N
1585762155.4,286047000.5,N
1585762175.2,286046998.5,N
1585762195.1,286046999.9,N
1585762196.0,286046999.9,N
1585762215.8,286047000.4,N
1585762235.7,286046998.7,N
1585762255.5,286046999.4,N
1585762275.3,286047000.6,N
1585762295.2,286047000.7,N
1585762315.0,286046999.9,N
1585762315.9,286046999.9,N
1585762335.7,286047000.6,N
1585762355.6,286047000.3,N
1585762375.4,286047000.8,N
1585762395.3,286047000.1,N
1585762415.1,286047001.7,N
1585762416.0,286047001.7,N
1585762435.8,286047001.9,N
1585762455.7,286047003.9,N
1585762475.5,286047003.7,N
1585762495.4,286047004.4,N
1585762515.2,286047001.4,N
1585762535.0,286047004.3,N
1585762535.9,286047004.3,N
1585762555.8,286047003.8,N
1585762575.6,286047001.5,N
1585762595.4,286047001.7,N
1585762615.3,286047003.8,N
1585762635.1,286047001.9,N
1585762655.9,286047001.7,N
1585762675.7,286047001.4,N
1585762695.5,286047001.8,N
1585762715.4,286047001.8,N
1585762735.2,286047002.0,N
1585762755.0,286047001.5,N
1585762756.0,286047001.5,N
1585762775.8,286047004.1,N
1585762795.6,286047003.4,N
1585762815.5,286047002.9,N
1585762835.3,286047003.2,N
1585762855.1,286047004.0,N
1585762875.9,286047003.8,N
1585762895.7,286047004.1,Y
1585762915.6,286046998.5,P
1585762935.4,286046998.6,N
1585762955.2,286046999.8,N
1585762975.1,286046999.7,N
1585762976.0,286046999.7,N
1585762995.8,286046998.7,N
1585763015.7,286046994.9,Y
1585763035.5,286046997.0,P
1585763055.3,286046999.3,N
1585763075.2,286046998.7,N
1585763095.0,286046998.5,N
1585763095.9,286046998.5,N
1585763115.8,286046999.7,N
1585763135.6,286047000.0,N
1585763155.4,286047002.3,N
1585763175.3,286046998.5,N
1585763195.1,286046998.8,N
1585763215.8,286047001.2,N
1585763235.7,286047000.5,N
1585763255.5,286046998.3,N
1585763275.4,286046998.9,N
1585763295.2,286047000.6,N
1585763315.0,286046998.5,N
1585763316.0,286046998.5,N
1585763335.8,286046999.0,N
1585763355.6,286046998.3,N
1585763375.5,286046999.6,N
1585763395.3,286046997.1,N
1585763415.1,286046999.5,N
1585763435.9,286046996.6,N
1585763455.7,286046997.7,N
1585763475.6,286046999.5,N
1585763495.4,286046996.5,N
1585763515.2,286046996.6,N
1585763535.1,286047000.9,N
1585763536.0,286047000.9,N
1585763555.8,286046994.9,Y
1585763575.7,286046996.5,P
1585763595.5,286046999.1,N
1585763615.3,286046996.6,N
1585763635.2,286046998.5,N
1585763655.0,286046998.3,N
1585763655.9,286046998.3,N
1585763675.8,286047001.2,N
1585763695.6,286046998.2,N
1585763715.4,286046998.7,N
1585763735.3,286046996.6,N
1585763755.1,286046997.3,N
1585763775.8,286046996.7,N
1585763795.7,286046997.9,N
1585763815.5,286046994.9,Y
1585763835.4,286046998.5,P
1585763855.2,286046998.7,P
1585763875.0,286046998.9,P
1585763875.9,286046998.9,Y
1585763895.8,286047000.3,P
1585763915.6,286046997.9,N
1585763935.5,286046998.6,N
1585763955.3,286046999.4,N
1585763975.1,286046996.8,Y
1585763995.9,286046996.8,P
